Location: Narrabri
(30.3170°S, 149.7830°E)
Time: 09:17:14
(UTC+11:00)

Vanguard 1 Rocket - All Passes

Search period start: 19 October 2017 00:00
Search period end: 29 October 2017 00:00
Orbit: 655 x 4222 km, 34.3° (Epoch: 18 October)

Date Brightness Start Highest point End Pass type
(mag) Time Alt. Az. Time Alt. Az. Time Alt. Az.
19 Oct - 01:30:28 10° WSW 01:57:04 76° NNW 02:15:10 10° NE visible
19 Oct - 04:06:45 10° WSW 04:25:48 33° NW 04:38:06 10° N visible
19 Oct - 16:53:56 10° N 17:04:20 32° NE 17:21:19 10° ESE daylight
19 Oct - 19:16:29 10° NW 19:32:05 78° NNE 19:58:06 10° ESE visible
19 Oct - 21:44:08 10° W 22:05:57 80° S 22:32:15 10° E visible
20 Oct - 00:15:22 10° WSW 00:41:49 89° NNW 01:03:06 10° ENE visible
20 Oct - 02:49:27 10° WSW 03:13:22 51° NW 03:28:43 10° NNE visible
20 Oct - 05:33:44 10° WNW 05:39:22 12° WNW 05:44:13 10° NW visible
20 Oct - 15:47:03 10° NNE 15:53:21 16° ENE 16:01:46 10° E daylight
20 Oct - 18:05:49 10° NW 18:18:40 60° NE 18:41:45 10° ESE daylight
20 Oct - 20:31:26 10° WNW 20:49:55 85° SSW 21:17:00 10° ESE visible
20 Oct - 23:01:03 10° W 23:25:40 83° S 23:49:54 10° E visible
21 Oct - 01:33:29 10° WSW 01:59:39 68° NNW 02:18:02 10° NE visible
21 Oct - 04:10:47 10° W 04:27:51 26° NW 04:39:44 10° N visible
21 Oct - 16:56:10 10° NNW 17:06:35 40° NE 17:24:49 10° ESE daylight
21 Oct - 19:19:39 10° WNW 19:34:57 85° NNE 20:01:03 10° ESE visible
21 Oct - 21:47:32 10° W 22:09:11 80° S 22:35:33 10° E visible
22 Oct - 00:18:29 10° WSW 00:44:40 83° NNW 01:06:11 10° ENE visible
22 Oct - 02:52:44 10° WSW 03:15:32 43° NW 03:31:00 10° NNE visible
22 Oct - 15:48:03 10° N 15:55:32 22° NE 16:06:49 10° E daylight
22 Oct - 18:08:44 10° NW 18:21:18 69° NNE 18:44:41 10° ESE daylight
22 Oct - 20:34:50 10° W 20:53:07 81° S 21:20:10 10° E visible
22 Oct - 23:04:19 10° WSW 23:28:43 87° SSE 23:53:08 10° ENE visible
23 Oct - 01:36:33 10° WSW 02:02:03 60° NW 02:20:40 10° NE visible
23 Oct - 04:15:39 10° W 04:29:53 20° NW 04:40:40 10° NNW visible
23 Oct - 16:58:44 10° NNW 17:09:00 49° NE 17:28:02 10° ESE daylight
23 Oct - 19:22:57 10° WNW 19:38:01 88° SSW 20:04:04 10° ESE visible
23 Oct - 21:50:56 10° W 22:12:24 81° S 22:38:50 10° E visible
24 Oct - 00:21:35 10° WSW 00:47:21 75° NNW 01:09:05 10° NE visible
24 Oct - 02:56:20 10° WSW 03:17:35 35° NW 03:32:55 10° N visible
24 Oct - 15:49:52 10° N 15:57:49 29° NE 16:10:55 10° ESE daylight
24 Oct - 18:11:51 10° WNW 18:24:09 78° NNE 18:47:36 10° ESE daylight
24 Oct - 20:38:17 10° W 20:56:22 80° S 21:23:24 10° E visible
24 Oct - 23:07:33 10° WSW 23:31:40 88° NNW 23:56:13 10° ENE visible
25 Oct - 01:39:44 10° WSW 02:04:17 51° NW 02:23:03 10° NNE visible
25 Oct - 04:22:12 10° W 04:31:57 14° WNW 04:40:08 10° NNW visible
25 Oct - 14:44:00 10° NE 14:47:23 12° ENE 14:51:27 10° ENE daylight
25 Oct - 17:01:34 10° NW 17:11:35 59° NE 17:31:05 10° ESE daylight
25 Oct - 19:26:21 10° W 19:41:12 83° SSW 20:07:08 10° E visible
25 Oct - 21:54:18 10° WSW 22:15:34 84° SSE 22:42:03 10° ENE visible
26 Oct - 00:24:42 10° WSW 00:49:51 67° NNW 01:11:46 10° NE visible
26 Oct - 03:00:25 10° W 03:19:37 28° NW 03:34:21 10° N visible
26 Oct - 15:52:12 10° NNW 16:00:13 36° NE 16:14:30 10° ESE daylight
26 Oct - 18:15:08 10° WNW 18:27:10 87° NNE 18:50:32 10° ESE daylight
26 Oct - 20:41:45 10° W 20:59:40 79° S 21:26:38 10° E visible
26 Oct - 23:10:45 10° WSW 23:34:28 81° NNW 23:59:09 10° ENE visible
27 Oct - 01:43:08 10° WSW 02:06:26 43° NW 02:25:06 10° NNE visible
27 Oct - 14:44:27 10° NNE 14:49:43 18° NE 14:57:09 10° E daylight
27 Oct - 17:04:36 10° NW 17:14:23 69° NNE 17:34:02 10° ESE daylight
27 Oct - 19:29:49 10° W 19:44:29 80° S 20:10:16 10° E visible
27 Oct - 21:57:37 10° WSW 22:18:38 88° SSE 22:45:10 10° ENE visible
28 Oct - 00:27:53 10° WSW 00:52:13 59° NW 01:14:12 10° NE visible
28 Oct - 03:05:19 10° W 03:21:40 22° NW 03:35:05 10° N visible
28 Oct - 15:54:51 10° NNW 16:02:47 46° NE 16:17:47 10° ESE daylight
28 Oct - 18:18:30 10° WNW 18:30:21 86° SSW 18:53:32 10° ESE daylight
28 Oct - 20:45:11 10° W 21:02:55 81° S 21:29:50 10° E visible
